TimeCDT,TemperatureF,Dew PointF,Humidity,Sea Level PressureIn,VisibilityMPH,Wind Direction,Wind SpeedMPH,Gust SpeedMPH,PrecipitationIn,Events,Conditions,WindDirDegrees,DateUTC
12:53 AM,43.0,30.0,60,30.23,10.0,NE,11.5,-,N/A,,Overcast,50,2012-10-06 05:53:00
1:53 AM,42.1,30.9,65,30.24,10.0,NE,10.4,-,N/A,,Overcast,50,2012-10-06 06:53:00
2:37 AM,39.2,32.0,75,30.28,10.0,NE,12.7,-,N/A,,Overcast,50,2012-10-06 07:37:00
2:49 AM,39.2,33.8,81,30.28,10.0,ENE,13.8,-,N/A,,Overcast,70,2012-10-06 07:49:00
2:53 AM,39.9,33.1,77,30.24,10.0,ENE,13.8,-,N/A,,Overcast,60,2012-10-06 07:53:00
3:02 AM,39.2,33.8,81,30.29,8.0,NE,12.7,-,N/A,,Overcast,50,2012-10-06 08:02:00
3:34 AM,37.4,35.6,93,30.28,4.0,ENE,10.4,-,N/A,,Overcast,60,2012-10-06 08:34:00
3:41 AM,37.4,35.6,93,30.28,4.0,ENE,8.1,-,N/A,,Overcast,70,2012-10-06 08:41:00
3:49 AM,37.4,35.6,93,30.28,4.0,ENE,11.5,-,N/A,,Overcast,70,2012-10-06 08:49:00
3:50 AM,37.4,35.6,93,30.28,4.0,ENE,9.2,-,N/A,,Overcast,70,2012-10-06 08:50:00
3:53 AM,37.9,35.1,89,30.24,4.0,ENE,11.5,-,N/A,,Overcast,70,2012-10-06 08:53:00
4:12 AM,37.4,35.6,93,30.26,4.0,ENE,11.5,-,N/A,,Overcast,70,2012-10-06 09:12:00
4:29 AM,37.4,35.6,93,30.26,5.0,East,10.4,-,N/A,,Overcast,80,2012-10-06 09:29:00
4:53 AM,37.9,35.1,89,30.20,7.0,ENE,9.2,-,N/A,,Overcast,70,2012-10-06 09:53:00
5:53 AM,39.0,34.0,82,30.22,8.0,ENE,4.6,-,N/A,,Overcast,70,2012-10-06 10:53:00
6:53 AM,39.0,34.0,82,30.22,10.0,East,5.8,-,N/A,,Overcast,80,2012-10-06 11:53:00
7:53 AM,37.9,33.1,83,30.25,6.0,East,3.5,-,N/A,,Haze,80,2012-10-06 12:53:00
8:53 AM,37.0,35.1,93,30.27,2.5,NE,5.8,-,N/A,,Overcast,50,2012-10-06 13:53:00
9:03 AM,37.4,35.6,93,30.28,3.0,ENE,8.1,-,N/A,,Overcast,60,2012-10-06 14:03:00
9:46 AM,37.4,35.6,93,30.28,10.0,ENE,8.1,-,N/A,,Overcast,60,2012-10-06 14:46:00
9:53 AM,37.9,35.1,89,30.26,10.0,ENE,5.8,-,N/A,,Overcast,60,2012-10-06 14:53:00
10:49 AM,39.2,33.8,81,30.28,10.0,ENE,9.2,-,N/A,,Overcast,70,2012-10-06 15:49:00
10:53 AM,39.0,33.1,79,30.27,10.0,East,9.2,-,N/A,,Overcast,80,2012-10-06 15:53:00
11:53 AM,39.9,32.0,73,30.27,10.0,ESE,9.2,-,N/A,,Overcast,110,2012-10-06 16:53:00
12:53 PM,41.0,30.9,67,30.27,10.0,East,8.1,-,N/A,,Overcast,90,2012-10-06 17:53:00
1:10 PM,41.0,30.2,65,30.28,10.0,East,10.4,-,N/A,,Overcast,80,2012-10-06 18:10:00
1:53 PM,42.1,30.0,62,30.25,10.0,East,6.9,-,N/A,,Overcast,90,2012-10-06 18:53:00
2:02 PM,42.8,30.2,61,30.26,10.0,East,5.8,-,N/A,,Overcast,90,2012-10-06 19:02:00
2:53 PM,43.0,28.9,58,30.22,10.0,SE,5.8,-,N/A,,Overcast,130,2012-10-06 19:53:00
3:40 PM,42.8,28.4,57,30.23,10.0,ESE,8.1,-,N/A,,Overcast,120,2012-10-06 20:40:00
3:53 PM,43.0,28.0,56,30.22,10.0,Variable,3.5,-,N/A,,Overcast,0,2012-10-06 20:53:00
4:53 PM,43.0,28.9,58,30.22,10.0,East,5.8,-,N/A,,Overcast,100,2012-10-06 21:53:00
5:53 PM,43.0,28.9,58,30.23,10.0,ENE,5.8,-,N/A,,Overcast,60,2012-10-06 22:53:00
6:53 PM,43.0,30.0,60,30.25,10.0,ENE,10.4,-,N/A,,Overcast,60,2012-10-06 23:53:00
7:53 PM,41.0,30.9,67,30.28,10.0,East,10.4,-,N/A,,Overcast,80,2012-10-07 00:53:00
8:53 PM,41.0,30.9,67,30.31,10.0,East,10.4,-,N/A,,Overcast,80,2012-10-07 01:53:00
9:53 PM,39.9,30.0,68,30.32,10.0,East,10.4,-,N/A,,Overcast,100,2012-10-07 02:53:00
10:53 PM,39.9,30.0,68,30.33,10.0,East,8.1,-,N/A,,Overcast,80,2012-10-07 03:53:00
11:53 PM,37.4,28.4,70,30.33,10.0,East,5.8,-,N/A,,Mostly Cloudy,90,2012-10-07 04:53:00